Year,Month,Day,Hour,Minute,Value (Times are PST for temperature in C)
2018,04,01,10,12,6.80
2018,04,01,10,13,6.80
2018,04,01,10,14,6.80
2018,04,01,10,15,6.80
2018,04,01,10,16,6.80
2018,04,01,10,17,6.80
2018,04,01,10,18,6.80
2018,04,01,10,19,6.80
2018,04,01,10,20,6.80
2018,04,01,10,21,6.90
2018,04,01,10,22,6.90
2018,04,01,10,23,7.00
2018,04,01,10,24,7.10
2018,04,01,10,25,7.10
2018,04,01,10,26,7.10
2018,04,01,10,27,7.10
2018,04,01,10,28,7.20
2018,04,01,10,29,7.20
2018,04,01,10,30,7.20
2018,04,01,10,31,7.20
2018,04,01,10,32,7.20
2018,04,01,10,33,7.20
2018,04,01,10,34,7.20
2018,04,01,10,35,7.20
2018,04,01,10,36,7.20
2018,04,01,10,37,7.20
2018,04,01,10,38,7.20
2018,04,01,10,39,7.20
2018,04,01,10,40,7.20
2018,04,01,10,41,7.20
2018,04,01,10,42,7.20
2018,04,01,10,43,7.20
2018,04,01,10,44,7.20
2018,04,01,10,45,7.20
2018,04,01,10,46,7.20
2018,04,01,10,47,7.20
2018,04,01,10,48,7.20
2018,04,01,10,49,7.20
2018,04,01,10,50,7.20
2018,04,01,10,51,7.20
2018,04,01,10,52,7.30
2018,04,01,10,53,7.30
2018,04,01,10,54,7.30
2018,04,01,10,55,7.30
2018,04,01,10,56,7.30
2018,04,01,10,57,7.30
2018,04,01,10,58,7.30
2018,04,01,10,59,7.30
2018,04,01,11,00,7.30
2018,04,01,11,01,7.30
2018,04,01,11,02,7.30
2018,04,01,11,03,7.30
2018,04,01,11,04,7.30
2018,04,01,11,05,7.20
2018,04,01,11,06,7.20
2018,04,01,11,07,7.20
2018,04,01,11,08,7.20
2018,04,01,11,09,7.20
2018,04,01,11,10,7.30
2018,04,01,11,11,7.30
2018,04,01,11,12,7.30
2018,04,01,11,13,7.30
2018,04,01,11,14,7.30
2018,04,01,11,15,7.30
2018,04,01,11,16,7.30
2018,04,01,11,17,7.30
2018,04,01,11,18,7.20
2018,04,01,11,19,7.20
2018,04,01,11,20,7.20
2018,04,01,11,21,7.20
2018,04,01,11,22,7.20
2018,04,01,11,23,7.20
2018,04,01,11,24,7.20
2018,04,01,11,25,7.20
2018,04,01,11,26,7.20
2018,04,01,11,27,7.30
2018,04,01,11,28,7.30
2018,04,01,11,29,7.30
2018,04,01,11,30,7.30
2018,04,01,11,31,7.30
2018,04,01,11,32,7.30
2018,04,01,11,33,7.30
2018,04,01,11,34,7.30
2018,04,01,11,35,7.30
2018,04,01,11,36,7.30
2018,04,01,11,37,7.30
2018,04,01,11,38,7.30
2018,04,01,11,39,7.20
2018,04,01,11,40,7.20
2018,04,01,11,41,7.20
2018,04,01,11,42,7.20
2018,04,01,11,43,7.10
2018,04,01,11,44,7.10
2018,04,01,11,45,7.10
2018,04,01,11,46,7.10
2018,04,01,11,47,7.10
2018,04,01,11,48,7.20
2018,04,01,11,49,7.20
2018,04,01,11,50,7.20
2018,04,01,11,51,7.20
2018,04,01,11,52,7.20
2018,04,01,11,53,7.20
2018,04,01,11,54,7.20
2018,04,01,11,55,7.30
2018,04,01,11,56,7.30
2018,04,01,11,57,7.20
2018,04,01,11,58,7.20
2018,04,01,11,59,7.10
2018,04,01,12,00,7.10
2018,04,01,12,01,7.10
2018,04,01,12,02,7.10
2018,04,01,12,03,7.10
2018,04,01,12,04,7.10
2018,04,01,12,05,7.10
2018,04,01,12,06,7.10
2018,04,01,12,07,7.10
2018,04,01,12,08,7.20
2018,04,01,12,09,7.20
2018,04,01,12,10,7.20
2018,04,01,12,11,7.20
2018,04,01,12,12,7.20
2018,04,01,12,13,7.20
2018,04,01,12,14,7.10
2018,04,01,12,15,7.10
2018,04,01,12,16,7.10
2018,04,01,12,17,7.10
2018,04,01,12,18,7.10
2018,04,01,12,19,7.10
2018,04,01,12,20,7.10
2018,04,01,12,21,7.10
2018,04,01,12,22,7.20
2018,04,01,12,23,7.20
2018,04,01,12,24,7.20
2018,04,01,12,25,7.20
2018,04,01,12,26,7.20
2018,04,01,12,27,7.20
2018,04,01,12,28,7.20
2018,04,01,12,29,7.20
2018,04,01,12,30,7.20
2018,04,01,12,31,7.20
2018,04,01,12,32,7.20
2018,04,01,12,33,7.20
2018,04,01,12,34,7.20
2018,04,01,12,35,7.20
2018,04,01,12,36,7.30
2018,04,01,12,37,7.30
2018,04,01,12,38,7.30
2018,04,01,12,39,7.30
2018,04,01,12,40,7.30
2018,04,01,12,41,7.30
2018,04,01,12,42,7.30
2018,04,01,12,43,7.30
2018,04,01,12,44,7.30
2018,04,01,12,45,7.30
2018,04,01,12,46,7.30
2018,04,01,12,47,7.40
2018,04,01,12,48,7.40
2018,04,01,12,49,7.40
2018,04,01,12,50,7.40
2018,04,01,12,51,7.40
2018,04,01,12,52,7.40
2018,04,01,12,53,7.40
2018,04,01,12,54,7.30
2018,04,01,12,55,7.30
2018,04,01,12,56,7.30
2018,04,01,12,57,7.30
2018,04,01,12,58,7.40
2018,04,01,12,59,7.40
2018,04,01,13,00,7.40
2018,04,01,13,01,7.30
2018,04,01,13,02,7.30
2018,04,01,13,03,7.30
2018,04,01,13,04,7.30
2018,04,01,13,05,7.30
2018,04,01,13,06,7.30
2018,04,01,13,07,7.40
2018,04,01,13,08,7.40
2018,04,01,13,09,7.40
2018,04,01,13,10,7.40
2018,04,01,13,11,7.40
2018,04,01,13,12,7.40
2018,04,01,13,13,7.30
2018,04,01,13,14,7.30
2018,04,01,13,15,7.30
2018,04,01,13,16,7.30
2018,04,01,13,17,7.40
2018,04,01,13,18,7.40
2018,04,01,13,19,7.30
2018,04,01,13,20,7.30
2018,04,01,13,21,7.30
2018,04,01,13,22,7.30
2018,04,01,13,23,7.30
2018,04,01,13,24,7.30
2018,04,01,13,25,7.20
2018,04,01,13,26,7.30
2018,04,01,13,27,7.30
2018,04,01,13,28,7.30
2018,04,01,13,29,7.30
2018,04,01,13,30,7.30
2018,04,01,13,31,7.30
2018,04,01,13,32,7.30
2018,04,01,13,33,7.30
2018,04,01,13,34,7.40
2018,04,01,13,35,7.40
2018,04,01,13,36,7.40
2018,04,01,13,37,7.40
2018,04,01,13,38,7.30
2018,04,01,13,39,7.30
2018,04,01,13,40,7.30
2018,04,01,13,41,7.30
2018,04,01,13,42,7.40
2018,04,01,13,43,7.40
2018,04,01,13,44,7.40
2018,04,01,13,45,7.40
2018,04,01,13,46,7.40
2018,04,01,13,47,7.40
2018,04,01,13,48,7.40
2018,04,01,13,49,7.30
2018,04,01,13,50,7.30
2018,04,01,13,51,7.30
2018,04,01,13,52,7.30
2018,04,01,13,53,7.30
2018,04,01,13,54,7.30
2018,04,01,13,55,7.30
2018,04,01,13,56,7.30
2018,04,01,13,57,7.30
2018,04,01,13,58,7.30
2018,04,01,13,59,7.40
2018,04,01,14,00,7.40
2018,04,01,14,01,7.40
2018,04,01,14,02,7.30
2018,04,01,14,03,7.30
2018,04,01,14,04,7.30
2018,04,01,14,05,7.30
2018,04,01,14,06,7.40
2018,04,01,14,07,7.30
2018,04,01,14,08,7.30
2018,04,01,14,09,7.30
2018,04,01,14,10,7.30
2018,04,01,14,11,7.30
2018,04,01,14,12,7.30
2018,04,01,14,13,7.30
2018,04,01,14,14,7.30
2018,04,01,14,15,7.30
2018,04,01,14,16,7.30
2018,04,01,14,17,7.30
2018,04,01,14,18,7.30
2018,04,01,14,19,7.20
2018,04,01,14,20,7.20
2018,04,01,14,21,7.20
2018,04,01,14,22,7.30
2018,04,01,14,23,7.30
2018,04,01,14,24,7.30
2018,04,01,14,25,7.30
2018,04,01,14,26,7.20
2018,04,01,14,27,7.30
2018,04,01,14,28,7.30
2018,04,01,14,29,7.40
2018,04,01,14,30,7.40
2018,04,01,14,31,7.40
2018,04,01,14,32,7.40
2018,04,01,14,33,7.40
2018,04,01,14,34,7.50
2018,04,01,14,35,7.40
2018,04,01,14,36,7.40
2018,04,01,14,37,7.30
2018,04,01,14,38,7.30
2018,04,01,14,39,7.20
2018,04,01,14,40,7.10
2018,04,01,14,41,7.20
2018,04,01,14,42,7.20
2018,04,01,14,43,7.30
2018,04,01,14,44,7.30
2018,04,01,14,45,7.30
2018,04,01,14,46,7.20
2018,04,01,14,47,7.20
2018,04,01,14,48,7.20
2018,04,01,14,49,7.20
2018,04,01,14,50,7.30
2018,04,01,14,51,7.30
2018,04,01,14,52,7.30
2018,04,01,14,53,7.30
2018,04,01,14,54,7.20
2018,04,01,14,55,7.20
2018,04,01,14,56,7.20
2018,04,01,14,57,7.10
2018,04,01,14,58,7.10
2018,04,01,14,59,7.20
2018,04,01,15,00,7.20
2018,04,01,15,01,7.30
2018,04,01,15,02,7.30
2018,04,01,15,03,7.30
2018,04,01,15,04,7.20
2018,04,01,15,05,7.10
2018,04,01,15,06,7.10
2018,04,01,15,07,7.00
2018,04,01,15,08,6.90
2018,04,01,15,09,6.90
2018,04,01,15,10,6.90
2018,04,01,15,11,6.90
2018,04,01,15,12,7.00
2018,04,01,15,13,7.00
2018,04,01,15,14,6.90
2018,04,01,15,15,6.90
2018,04,01,15,16,6.90
2018,04,01,15,17,6.90
2018,04,01,15,18,6.90
2018,04,01,15,19,7.00
2018,04,01,15,20,7.00
2018,04,01,15,21,7.00
2018,04,01,15,22,7.10
2018,04,01,15,23,7.10
2018,04,01,15,24,7.10
2018,04,01,15,25,7.10
2018,04,01,15,26,7.20
2018,04,01,15,27,7.10
2018,04,01,15,28,7.10
2018,04,01,15,29,7.10
2018,04,01,15,30,7.10
2018,04,01,15,31,7.10
2018,04,01,15,32,7.10
2018,04,01,15,33,7.10
2018,04,01,15,34,7.10
2018,04,01,15,35,7.10
2018,04,01,15,36,7.00
2018,04,01,15,37,7.00
2018,04,01,15,40,7.00
2018,04,01,15,41,7.00
2018,04,01,15,42,6.90
2018,04,01,15,43,6.80
2018,04,01,15,44,6.80
2018,04,01,15,45,6.80
2018,04,01,15,46,6.80
2018,04,01,15,47,6.80
2018,04,01,15,48,6.90
2018,04,01,15,49,6.90
2018,04,01,15,50,6.90
2018,04,01,15,51,6.90
2018,04,01,15,52,6.90
2018,04,01,15,53,6.90
2018,04,01,15,54,6.90
2018,04,01,15,55,6.90
2018,04,01,15,56,6.80
2018,04,01,15,57,6.80
2018,04,01,15,58,6.90
2018,04,01,15,59,6.80
2018,04,01,16,00,6.80
2018,04,01,16,01,6.90
2018,04,01,16,02,7.00
2018,04,01,16,03,7.10
2018,04,01,16,04,7.20
2018,04,01,16,05,7.30
2018,04,01,16,06,7.30
2018,04,01,16,07,7.30
2018,04,01,16,08,7.30
2018,04,01,16,09,7.30
2018,04,01,16,10,7.20
2018,04,01,16,11,7.20
2018,04,01,16,12,7.20
2018,04,01,16,13,7.20
2018,04,01,16,14,7.20
2018,04,01,16,15,7.20
2018,04,01,16,16,7.20
2018,04,01,16,17,7.20
2018,04,01,16,18,7.20
2018,04,01,16,19,7.20
2018,04,01,16,20,7.20
2018,04,01,16,21,7.20
2018,04,01,16,22,7.10
2018,04,01,16,23,7.10
2018,04,01,16,24,7.10
2018,04,01,16,25,7.10
2018,04,01,16,26,7.20
2018,04,01,16,27,7.20
2018,04,01,16,28,7.20
2018,04,01,16,29,7.20
2018,04,01,16,30,7.20
2018,04,01,16,31,7.20
2018,04,01,16,32,7.20
2018,04,01,16,33,7.20
2018,04,01,16,34,7.30
2018,04,01,16,35,7.30
2018,04,01,16,36,7.30
2018,04,01,16,37,7.30
2018,04,01,16,38,7.30
2018,04,01,16,39,7.30
2018,04,01,16,40,7.30
2018,04,01,16,41,7.30
2018,04,01,16,42,7.40
2018,04,01,16,43,7.40
2018,04,01,16,44,7.50
2018,04,01,16,45,7.50
2018,04,01,16,46,7.40
2018,04,01,16,47,7.20
2018,04,01,16,48,7.10
2018,04,01,16,49,7.00
2018,04,01,16,50,7.00
2018,04,01,16,51,6.90
2018,04,01,16,52,6.90
2018,04,01,16,53,6.90
2018,04,01,16,54,6.90
2018,04,01,16,55,6.90
2018,04,01,16,56,6.90
2018,04,01,16,57,6.90
2018,04,01,16,58,6.80
2018,04,01,16,59,6.80
2018,04,01,17,00,6.80
2018,04,01,17,01,6.80
2018,04,01,17,02,6.80
2018,04,01,17,03,6.80
2018,04,01,17,04,6.90
2018,04,01,17,05,6.90
2018,04,01,17,06,6.90
2018,04,01,17,07,6.90
2018,04,01,17,08,6.90
2018,04,01,17,09,6.90
2018,04,01,17,10,6.90
2018,04,01,17,11,7.00
2018,04,01,17,12,7.00
2018,04,01,17,13,7.10
2018,04,01,17,14,7.10
2018,04,01,17,15,7.10
2018,04,01,17,16,7.10
2018,04,01,17,17,7.20
2018,04,01,17,18,7.20
2018,04,01,17,19,7.20
2018,04,01,17,20,7.10
2018,04,01,17,21,7.10
2018,04,01,17,22,7.00
2018,04,01,17,23,7.00
2018,04,01,17,24,7.00
2018,04,01,17,25,7.00
2018,04,01,17,26,6.90
2018,04,01,17,27,6.80
2018,04,01,17,28,6.80
2018,04,01,17,29,6.80
2018,04,01,17,30,6.80
2018,04,01,17,31,6.80
2018,04,01,17,32,6.80
2018,04,01,17,33,6.80
2018,04,01,17,34,6.80
2018,04,01,17,35,6.80
2018,04,01,17,36,6.80
2018,04,01,17,37,6.80
2018,04,01,17,38,6.80
2018,04,01,17,39,6.80
2018,04,01,17,40,6.80
2018,04,01,17,41,6.80
2018,04,01,17,42,6.80
2018,04,01,17,43,6.80
2018,04,01,17,44,6.80
2018,04,01,17,45,6.90
2018,04,01,17,46,6.90
2018,04,01,17,47,6.90
2018,04,01,17,48,6.80
2018,04,01,17,49,6.80
2018,04,01,17,50,6.80
2018,04,01,17,51,6.80
2018,04,01,17,52,6.80
2018,04,01,17,53,6.80
2018,04,01,17,54,6.80
2018,04,01,17,55,6.90
2018,04,01,17,56,6.80
2018,04,01,17,57,6.80
2018,04,01,18,33,6.80
2018,04,01,18,34,6.80
2018,04,01,18,35,6.80
2018,04,01,18,36,6.80
2018,04,01,18,37,6.80
2018,04,01,18,38,6.90
2018,04,01,18,39,6.90
2018,04,01,18,40,6.90
2018,04,01,18,41,6.80
2018,04,01,18,42,6.70
2018,04,01,18,43,6.70
2018,04,01,18,44,6.70
2018,04,01,18,45,6.60
2018,04,01,18,46,6.60
2018,04,01,18,47,6.60
2018,04,01,18,48,6.50
2018,04,01,18,49,6.50
2018,04,01,18,50,6.50
2018,04,01,18,51,6.50
2018,04,01,18,52,6.60
2018,04,01,18,53,6.60
2018,04,01,18,54,6.60
2018,04,01,18,55,6.70
2018,04,01,18,56,6.70
2018,04,01,18,57,6.70
2018,04,01,18,58,6.70
2018,04,01,18,59,6.70
2018,04,01,19,00,6.70
2018,04,01,19,01,6.70
2018,04,01,19,02,6.70
2018,04,01,19,03,6.70
2018,04,01,19,04,6.70
2018,04,01,19,05,6.60
2018,04,01,19,06,6.60
2018,04,01,19,07,6.60
2018,04,01,19,08,6.50
2018,04,01,19,09,6.50
2018,04,01,19,10,6.50
2018,04,01,19,11,6.50
2018,04,01,19,12,6.50
2018,04,01,19,13,6.50
2018,04,01,19,14,6.50
2018,04,01,19,15,6.40
2018,04,01,19,16,6.40
2018,04,01,19,17,6.40
2018,04,01,19,18,6.40
2018,04,01,19,19,6.40
2018,04,01,19,20,6.40
2018,04,01,19,21,6.40
2018,04,01,19,22,6.30
2018,04,01,19,23,6.30
2018,04,01,19,24,6.30
2018,04,01,19,25,6.30
2018,04,01,19,26,6.20
2018,04,01,19,27,6.20
2018,04,01,19,28,6.20
2018,04,01,19,29,6.20
2018,04,01,19,30,6.20
2018,04,01,19,31,6.20
2018,04,01,19,32,6.20
2018,04,01,19,33,6.20
2018,04,01,19,34,6.20
2018,04,01,19,35,6.20
2018,04,01,19,36,6.20
